Location: Beaver Brook Station
(42.3793°N, 71.2203°W)
Time: 02:16:18
(UTC+00:00)

YAOGAN 1 - Pass Details

Date: 29 October 2020
Orbit: 618 x 620 km, 97.9° (Epoch: 25 November)

Event Time Altitude Azimuth Distance (km) Brightness Sun altitude
Rises 22:06:43 0° 119° (ESE) 2,889 5.5 -5.3°
Reaches altitude 10° 22:09:48 10° 95° (E) 1,988 4.6 -5.9°
Maximum altitude 22:12:04 14° 63° (ENE) 1,725 4.2 -6.3°
Drops below altitude 10° 22:14:22 10° 31° (NNE) 1,995 4.8 -6.7°
Sets 22:17:28 0° 7° (N) 2,906 5.8 -7.3°
